Location: Gallinara
(44.0333°N, 8.2333°E)
Time: 00:48:10
(UTC+00:00)

SAR-Lupe-4 - Pass Details

Date: 25 September 2020
Orbit: 481 x 485 km, 98.2° (Epoch: 31 October)

Event Time Altitude Azimuth Distance (km) Brightness Sun altitude
Rises 04:08:34 0° 167° (SSE) 2,540 7.2 -13.2°
Reaches altitude 10° 04:10:37 10° 168° (SSE) 1,665 6.3 -12.9°
Maximum altitude 04:14:12 84° 257° (WSW) 495 3.5 -12.2°
Drops below altitude 10° 04:17:48 10° 345° (NNW) 1,678 6.2 -11.6°
Sets 04:19:53 0° 346° (NNW) 2,563 7.2 -11.2°
